SelfieSat (53951 NORAD) Tracking and Keplerian Element Data

This shows tracking and keplerian element data for the satellite.

Feedback or suggestion? Click here.




ElementValue
Catalog53951
NameSelfieSat
Epoch Orbit11330
Epoch Day159.62210476
Epoch Year2024
RAAN289.0477
Inclination97.5675
Eccentricity0.0006872
Argument of Perigee190.8247
Mean Anonmoly169.286
Mean Motion15.53969743
Decay Rate0.00110069
L11 53951U 22057BC 24159.62210476 .00110069 00000-0 16838-2 0 9993
L22 53951 97.5675 289.0477 0006872 190.8247 169.2860 15.53969743113307



Live tracking and technical data element details for SelfieSat (NORAD 53951). SelfieSat can be tracked NOW for your location showing map with azimuth and elevation plus other details from your city location.







IsCatalogInMostPopularTable: catalog: 53951, numindb: 29
Update: records affected: 1



GetName: 53951 SelfieSat

Hit Count: updated at: Thu, 23 Jan 2025 18:04:12 GMT